Flag for Belarus Weather past 2 weeks in Barysaw, Belarus

Now
70 °F

Sunny.


Feels Like: 70 °F
Forecast: 50 / 71 °F
Wind: 13 mph from Northwest

Location: Minsk

Current Time: Aug 29, 2015 at 4:51:28 PM

Latest Report: Aug 29, 2015 at 4:30 PM


Visibility: 10 mi

Pressure: 30.15 "Hg

Humidity: 43%

Dew point: 46 °F

Location of BarysawLocation

Historic Weather in Barysaw — Graph

°F

Barysaw temperature yesterday

Maximum temperature yesterday: 86 °F (at 5:00 PM)
Minimum temperature yesterday: 54 °F (at 5:30 AM)
Average temperature yesterday: 71 °F

Past Weeks' High & Low Weather Summary

 TemperatureHumidityPressure
High86 °F (Aug 25, 2:00 PM)100% (Aug 18, 6:30 AM)30.42 "Hg (Aug 18, 6:30 AM)
Low39 °F (Aug 20, 3:30 AM)20% (Aug 25, 4:00 PM)29.92 "Hg (Aug 15, 6:30 PM)
Average64 °F57%30.14 "Hg
* Reported Aug 14 3:00 PM — Aug 29 3:30 PM, Barysaw, Weather by CustomWeather, © 2015

Note: Actual official high and low records may vary slightly from our data, if they occured in-between our weather recording intervals... More about our weather records

Advertising

Barysaw weather history for previous 24 hours

 ConditionsComfort  
Time TempWeatherWind HumidityBarometerVisibility
3:30 PM
Sat, Aug 29
72 °FPassing clouds.13 mph33%30.15 "HgN/A
3:00 PM72 °FPassing clouds.13 mph36%30.15 "HgN/A
2:30 PM72 °FPassing clouds.13 mph38%30.15 "HgN/A
2:00 PM70 °FPassing clouds.15 mph40%30.15 "HgN/A
1:00 PM70 °FPartly sunny.17 mph43%30.15 "HgN/A
12:30 PM68 °FScattered clouds.13 mph46%30.12 "HgN/A
12:00 PM68 °FScattered clouds.13 mph43%30.12 "HgN/A
11:30 AM68 °FScattered clouds.13 mph43%30.12 "HgN/A
10:30 AM64 °FScattered clouds.13 mph52%30.12 "HgN/A
10:00 AM63 °FScattered clouds.13 mph64%30.12 "HgN/A
9:00 AM61 °FScattered clouds.10 mph68%30.12 "HgN/A
8:30 AM61 °FScattered clouds.10 mph72%30.09 "HgN/A
8:00 AM59 °FScattered clouds.10 mph82%30.09 "HgN/A
7:30 AM59 °FScattered clouds.8 mph82%30.09 "HgN/A
7:00 AM59 °FPassing clouds.6 mph82%30.09 "HgN/A
6:00 AM61 °FPassing clouds.10 mph77%30.07 "HgN/A
5:30 AM59 °FClear.8 mph82%30.07 "Hg10 mi
5:00 AM59 °FClear.6 mph82%30.04 "Hg10 mi
4:30 AM63 °FClear.10 mph77%30.04 "Hg10 mi
4:00 AM63 °FClear.10 mph77%30.04 "Hg10 mi
3:30 AM64 °FClear.8 mph73%30.04 "Hg10 mi
3:00 AM64 °FClear.8 mph78%30.04 "Hg10 mi
2:30 AM66 °FPartly cloudy.15 mph73%30.01 "HgN/A
2:00 AM66 °FPartly cloudy.10 mph73%30.01 "HgN/A
1:30 AM68 °FPartly cloudy.10 mph73%30.01 "HgN/A
1:00 AM68 °FPartly cloudy.10 mph78%29.98 "HgN/A
12:30 AM72 °FPartly cloudy.10 mph65%29.98 "HgN/A
12:00 AM72 °FClear.10 mph65%29.98 "Hg10 mi
11:30 PM
Fri, Aug 28
73 °FClear.15 mph61%29.98 "Hg10 mi
11:00 PM75 °FClear.8 mph54%29.95 "Hg10 mi
10:30 PM77 °FPassing clouds.6 mph51%29.95 "HgN/A
10:00 PM77 °FPassing clouds.6 mph51%29.95 "HgN/A
9:30 PM77 °FPassing clouds.8 mph51%29.95 "HgN/A
9:00 PM79 °FPassing clouds.10 mph48%29.95 "HgN/A
8:30 PM77 °FPassing clouds.6 mph54%29.92 "HgN/A
8:00 PM81 °FSunny.No wind45%29.92 "Hg10 mi
7:30 PM81 °FSunny.1 mph45%29.92 "Hg10 mi
7:00 PM82 °FPassing clouds.3 mph40%29.92 "HgN/A
6:30 PM84 °FPassing clouds.3 mph37%29.92 "HgN/A
6:00 PM84 °FPassing clouds.6 mph37%29.92 "HgN/A
5:30 PM84 °FPassing clouds.8 mph35%29.92 "HgN/A
5:00 PM86 °FPassing clouds.8 mph33%29.92 "HgN/A
4:30 PM84 °FPassing clouds.10 mph35%29.95 "HgN/A
4:00 PM84 °FPassing clouds.8 mph35%29.95 "HgN/A
Weather by CustomWeather, © 2015

See weather overviewHow to use our weather pages